Location: Arleux
(50.3632°N, 2.8721°E)
Time: 17:10:04
(UTC+00:00)

USA 234 - Pass Details

Date: 15 December 2019
Orbit: 1099 x 1108 km, 123.0° (Epoch: 20 January)

Event Time Altitude Azimuth Distance (km) Brightness Sun altitude
Rises 06:19:09 0° 60° (ENE) 3,922 6.8 -12.3°
Reaches altitude 10° 06:21:38 10° 59° (ENE) 2,964 6.0 -11.9°
Maximum altitude 06:28:09 71° 337° (NNW) 1,163 3.3 -11.0°
Drops below altitude 10° 06:34:39 10° 255° (WSW) 2,962 5.1 -10.0°
Enters shadow 06:36:54 - 254° (WSW) 3,831 5.7 -9.7°
